Regional Weather Roundup
Issued by NWS

Home | Current Version | Previous Version | Text Only | Print | Product List | Glossary On
Versions: 1 2 3 4 5 6 7 8 9 10 11 12 13 14 15 16 17 18 19 20 21 22 23 24 25 26 27 28 29 30 31 32 33 34 35 36 37 38 39 40 41 42 43 44 45 46 47 48 49 50
000
ASUS44 KLIX 260010
RWRLA
LOUISIANA WEATHER ROUNDUP
NATIONAL WEATHER SERVICE NEW ORLEANS LA
600 PM CST SUN JAN 25 2015

NOTE: "FAIR" INDICATES FEW OR NO CLOUDS BELOW 12,000 FEET WITH NO
      SIGNIFICANT WEATHER AND/OR OBSTRUCTIONS TO VISIBILITY.
      SKY/WX - SKY CONDITION AND SIGNIFICANT WEATHER.
      TMP - AIR TEMPERATURE.    DP   - DEWPOINT TEMPERATURE.
      RH  - RELATIVE HUMIDITY.  PRES - PRESSURE.
      HX  - HEAT INDEX.         WCI  - WIND CHILL INDEX.

*  THESE STATIONS ARE NOT NWS OR FAA STATIONS AND ARE NOT UNDER
   NWS QUALITY CONTROL.

LAZ040-048-061>063-065-066-069-260100-
SOUTHEAST LOUISIANA

CITY           SKY/WX    TMP DP  RH WIND       PRES   REMARKS
N.O. AUDUBON     N/A     58  45  62 MISG        N/A
6HR MIN TEMP:  56; 6HR MAX TEMP:  67;

N.O. INTL ARPT PTCLDY    59  39  47 SW18      29.86F
6HR MIN TEMP:  59; 6HR MAX TEMP:  68;

N.O. LAKEFRONT CLEAR     62  40  44 SW16      29.86S
6HR MIN TEMP:  62; 6HR MAX TEMP:  67;

N.O. DOWNTOWN* FAIR      61  39  44 SW12G21   29.87F
6HR MIN TEMP:  61; 6HR MAX TEMP:  66;

SLIDELL        CLEAR     59  40  49 VRB5      29.86R
6HR MIN TEMP:  59; 6HR MAX TEMP:  65;

BATON ROUGE    CLEAR     60  42  51 SW10      29.88R
6HR MIN TEMP:  60; 6HR MAX TEMP:  69;

BOOTHVILLE     PTCLDY    61  52  72 W22G30    29.92F
6HR MIN TEMP:  60; 6HR MAX TEMP:  63;

BELLE CHASSE   CLEAR     60  40  47 SW16G23   29.88R
6HR MIN TEMP:  59; 6HR MAX TEMP:  67;

BOGALUSA*        N/A     61  38  41 W6        29.86R
6HR MIN TEMP:  61; 6HR MAX TEMP:  69;

GALLIANO*      PTCLDY    60  47  64 MISG      29.91F
6HR MIN TEMP:  60; 6HR MAX TEMP:  67;

NEW ROADS*     FAIR      60  45  58 W7        29.89R
6HR MIN TEMP:  60; 6HR MAX TEMP:  68;

GONZALES*      FAIR      60  41  48 W8        29.90R
6HR MIN TEMP:  60; 6HR MAX TEMP:  67;

HAMMOND*       CLEAR     61  37  41 W9        29.88R
HOUMA*         CLEAR     57  46  67 W12G17    29.91F
PORT FOURCHON* CLEAR     59  52  77 W14G23    29.96F

$$

LAZ041-044-053-054-260100-
SOUTHWEST LOUISIANA

CITY           SKY/WX    TMP DP  RH WIND       PRES   REMARKS
LAKE CHARLES   CLEAR     64  36  35 W10G21    29.94R
6HR MIN TEMP:  63; 6HR MAX TEMP:  68;

LAFAYETTE      CLEAR     58  46  64 W9        29.91R
6HR MIN TEMP:  58; 6HR MAX TEMP:  67;

PATTERSON      CLEAR     55  45  67 W21       29.91F
6HR MIN TEMP:  55; 6HR MAX TEMP:  64;

SALT POINT       N/A     56  50  80 W10       29.90F
6HR MIN TEMP:  55; 6HR MAX TEMP:  59;

NEW IBERIA     CLEAR     58  45  62 W9        29.92R
6HR MIN TEMP:  58; 6HR MAX TEMP:  67; 6HR PCP: TRACE;

CHENAULT AIRPK NOT AVBL

$$

LAZ027-028-260100-
CENTRAL LOUISIANA

CITY           SKY/WX    TMP DP  RH WIND       PRES   REMARKS
FORT POLK      CLEAR     62  38  42 NW12      29.93R
6HR MIN TEMP:  62; 6HR MAX TEMP:  67;

ALEXANDRIA INT CLEAR     62  37  39 W12       29.90R
6HR MIN TEMP:  61; 6HR MAX TEMP:  67;

ALEXANDRIA     CLEAR     62  35  36 W7        29.90R
6HR MIN TEMP:  62; 6HR MAX TEMP:  69;


$$

LAZ001-002-260100-
NORTHWEST LOUISIANA

CITY           SKY/WX    TMP DP  RH WIND       PRES   REMARKS
SHREVEPORT     PTCLDY    59  30  33 NW17      29.97R
6HR MIN TEMP:  59; 6HR MAX TEMP:  67;

BARKSDALE AFB  CLEAR     59  29  32 NW15G24   29.97R
6HR MIN TEMP:  59; 6HR MAX TEMP:  66;

DTN SHREVEPORT CLEAR     58  28  32 NW12G24   29.97R
6HR MIN TEMP:  58; 6HR MAX TEMP:  65;


$$

LAZ014-016-260100-
NORTHEAST LOUISIANA

CITY           SKY/WX    TMP DP  RH WIND       PRES   REMARKS
MONROE         MOCLDY    59  36  42 NW12      29.91R
6HR MIN TEMP:  59; 6HR MAX TEMP:  66;

TALLULAH       PTCLDY    59  34  39 NW9       29.88R
6HR MIN TEMP:  59; 6HR MAX TEMP:  68;


$$



USA.gov is the U.S. government's official web portal to all federal, state and local government web resources and services.